Flag for Switzerland Weather past 2 weeks in Bern, Bern, Switzerland

Now
64 °F

Clear.


Feels Like: 64 °F
Forecast: 63 / 90 °F
Wind: 2 mph from North

Location: Bern / Belp

Current Time: Jul 2, 2015 at 2:18:42 AM

Latest Report: Jul 2, 2015 at 1:50 AM


Visibility: 10 mi

Pressure: 30.15 "Hg

Humidity: 94%

Dew point: 63 °F

Location of BernLocation

Historic Weather in Bern — Graph

°F

Bern temperature yesterday

Maximum temperature yesterday: 91 °F (at 6:20 PM)
Minimum temperature yesterday: 55 °F (at 5:20 AM)
Average temperature yesterday: 75 °F

Past Weeks' High & Low Weather Summary

 TemperatureHumidityPressure
High91 °F (Jul 1, 6:20 PM)100% (Jun 18, 1:50 AM)30.24 "Hg (Jun 18, 1:50 AM)
Low43 °F (Jun 24, 4:50 AM)24% (Jun 26, 5:20 PM)29.77 "Hg (Jun 22, 9:20 PM)
Average64 °F71%30.12 "Hg
* Reported Jun 17 1:20 AM — Jul 2 1:20 AM, Bern, Weather by CustomWeather, © 2015

Note: Actual official high and low records may vary slightly from our data, if they occured in-between our weather recording intervals... More about our weather records

Advertising

Bern weather history for previous 24 hours

 ConditionsComfort  
Time TempWeatherWind HumidityBarometerVisibility
1:20 AM
Thu, Jul 2
64 °FClear.6 mph94%30.15 "Hg10 mi
12:50 AM66 °FClear.3 mph88%30.15 "Hg10 mi
12:20 AM66 °FClear.2 mph88%30.12 "Hg10 mi
11:50 PM
Wed, Jul 1
66 °FClear.1 mph88%30.12 "Hg10 mi
11:20 PM68 °FClear.2 mph83%30.12 "Hg10 mi
10:50 PM68 °FPassing clouds.3 mph83%30.12 "HgN/A
10:20 PM70 °FLight rain. Partly sunny.3 mph83%30.12 "HgN/A
9:50 PM72 °FSunny.No wind83%30.09 "Hg10 mi
9:20 PM77 °FSunny.2 mph74%30.09 "Hg10 mi
8:50 PM82 °FPassing clouds.3 mph66%30.09 "HgN/A
8:20 PM88 °FSunny.2 mph49%30.07 "Hg10 mi
7:50 PM91 °FSunny.3 mph36%30.07 "Hg10 mi
7:20 PM91 °FPassing clouds.5 mph34%30.07 "HgN/A
6:50 PM91 °FSunny.3 mph34%30.07 "Hg10 mi
6:20 PM91 °FPassing clouds.5 mph32%30.07 "HgN/A
5:50 PM90 °FSunny.2 mph38%30.07 "Hg10 mi
5:20 PM90 °FSunny.2 mph38%30.07 "Hg10 mi
4:50 PM90 °FPassing clouds.6 mph43%30.09 "HgN/A
4:20 PM90 °FPassing clouds.7 mph41%30.09 "HgN/A
3:50 PM88 °FPassing clouds.7 mph46%30.09 "HgN/A
3:20 PM88 °FPassing clouds.6 mph43%30.09 "HgN/A
2:50 PM88 °FPassing clouds.7 mph43%30.09 "HgN/A
2:20 PM88 °FPassing clouds.5 mph40%30.09 "HgN/A
1:50 PM88 °FSunny.5 mph43%30.09 "Hg10 mi
1:20 PM86 °FPassing clouds.5 mph43%30.09 "HgN/A
12:50 PM84 °FPassing clouds.5 mph48%30.12 "HgN/A
12:20 PM82 °FSunny.3 mph51%30.12 "Hg10 mi
11:50 AM82 °FSunny.6 mph51%30.12 "Hg10 mi
11:20 AM81 °FSunny.3 mph51%30.12 "Hg10 mi
10:50 AM81 °FSunny.2 mph58%30.12 "Hg10 mi
10:20 AM79 °FSunny.2 mph58%30.12 "Hg10 mi
9:50 AM77 °FSunny.2 mph57%30.12 "Hg10 mi
9:20 AM75 °FSunny.2 mph65%30.12 "Hg10 mi
8:50 AM73 °FSunny.1 mph65%30.12 "Hg10 mi
8:20 AM72 °FSunny.1 mph73%30.12 "Hg10 mi
7:50 AM68 °FSunny.1 mph78%30.15 "Hg10 mi
7:20 AM63 °FSunny.No wind94%30.15 "Hg10 mi
6:50 AM59 °FSunny.No wind94%30.12 "Hg10 mi
6:20 AM57 °FClear.2 mph94%30.12 "Hg10 mi
5:50 AM55 °FClear.2 mph100%30.12 "Hg10 mi
5:20 AM55 °FClear.1 mph100%30.12 "Hg10 mi
4:50 AM57 °FClear.1 mph94%30.12 "Hg10 mi
4:20 AM57 °FClear.1 mph100%30.12 "Hg10 mi
3:50 AM57 °FClear.1 mph100%30.09 "Hg10 mi
3:20 AM59 °FClear.1 mph94%30.09 "Hg10 mi
2:50 AM59 °FClear.1 mph94%30.09 "Hg10 mi
2:20 AM59 °FClear.2 mph94%30.09 "Hg10 mi
Weather by CustomWeather, © 2015

See weather overviewHow to use our weather pages